Time,TemperatureF,DewpointF,PressureIn,WindDirection,WindDirectionDegrees,WindSpeedMPH,WindSpeedGustMPH,Humidity,HourlyPrecipIn,Conditions,Clouds,dailyrainin,SoftwareType,DateUTC
2013-01-12 00:08:00,38.5,36.0,30.17,East,83,1.0,-999.0,91,-99.99,,,0.00,weatherlink.com 1.10,2013-01-12 08:08:00,
2013-01-12 00:23:00,38.8,36.0,30.16,East,81,0.0,-999.0,90,-99.99,,,0.00,weatherlink.com 1.10,2013-01-12 08:23:00,
2013-01-12 00:38:00,39.3,36.0,30.16,ENE,78,1.0,-999.0,87,-99.99,,,0.00,weatherlink.com 1.10,2013-01-12 08:38:00,
2013-01-12 00:53:00,39.5,35.0,30.16,ESE,116,0.0,-999.0,85,-99.99,,,0.00,weatherlink.com 1.10,2013-01-12 08:53:00,
2013-01-12 01:08:00,40.1,35.0,30.16,ENE,71,0.0,-999.0,81,-99.99,,,0.00,weatherlink.com 1.10,2013-01-12 09:08:00,
2013-01-12 01:23:00,40.5,34.0,30.16,East,92,0.0,-999.0,77,-99.99,,,0.00,weatherlink.com 1.10,2013-01-12 09:23:00,
2013-01-12 01:38:00,40.5,34.0,30.16,East,85,0.0,-999.0,76,-99.99,,,0.00,weatherlink.com 1.10,2013-01-12 09:38:00,
2013-01-12 01:53:00,40.5,33.0,30.17,ENE,74,0.0,-999.0,75,-99.99,,,0.00,weatherlink.com 1.10,2013-01-12 09:53:00,
2013-01-12 02:08:00,40.5,33.0,30.17,East,90,0.0,-999.0,75,-99.99,,,0.00,weatherlink.com 1.10,2013-01-12 10:08:00,
2013-01-12 02:23:00,39.9,33.0,30.17,East,90,0.0,-999.0,76,-99.99,,,0.00,weatherlink.com 1.10,2013-01-12 10:23:00,
2013-01-12 02:38:00,39.2,33.0,30.17,East,90,0.0,-999.0,77,-99.99,,,0.00,weatherlink.com 1.10,2013-01-12 10:38:00,
2013-01-12 02:53:00,39.2,32.0,30.17,ESE,107,0.0,-999.0,76,-99.99,,,0.00,weatherlink.com 1.10,2013-01-12 10:53:00,
2013-01-12 03:08:00,39.2,32.0,30.17,ESE,109,0.0,-999.0,75,-99.99,,,0.00,weatherlink.com 1.10,2013-01-12 11:08:00,
2013-01-12 03:23:00,38.8,32.0,30.17,ESE,109,0.0,-999.0,75,-99.99,,,0.00,weatherlink.com 1.10,2013-01-12 11:23:00,
2013-01-12 03:38:00,38.3,31.0,30.18,ESE,109,0.0,-999.0,76,-99.99,,,0.00,weatherlink.com 1.10,2013-01-12 11:38:00,
2013-01-12 03:53:00,37.9,32.0,30.18,ESE,109,0.0,-999.0,78,-99.99,,,0.00,weatherlink.com 1.10,2013-01-12 11:53:00,
2013-01-12 04:08:00,37.5,32.0,30.18,ESE,109,0.0,-999.0,80,-99.99,,,0.00,weatherlink.com 1.10,2013-01-12 12:08:00,
2013-01-12 04:23:00,37.2,32.0,30.17,ESE,109,0.0,-999.0,81,-99.99,,,0.00,weatherlink.com 1.10,2013-01-12 12:23:00,
2013-01-12 04:38:00,36.9,32.0,30.18,ESE,109,0.0,-999.0,82,-99.99,,,0.00,weatherlink.com 1.10,2013-01-12 12:38:00,
2013-01-12 04:53:00,36.6,32.0,30.18,ESE,109,0.0,-999.0,82,-99.99,,,0.00,weatherlink.com 1.10,2013-01-12 12:53:00,
2013-01-12 05:08:00,36.3,31.0,30.17,ESE,109,0.0,-999.0,81,-99.99,,,0.00,weatherlink.com 1.10,2013-01-12 13:08:00,
2013-01-12 05:23:00,35.6,30.0,30.18,ESE,109,0.0,-999.0,81,-99.99,,,0.00,weatherlink.com 1.10,2013-01-12 13:23:00,
2013-01-12 05:38:00,34.9,30.0,30.19,ESE,109,0.0,-999.0,82,-99.99,,,0.00,weatherlink.com 1.10,2013-01-12 13:38:00,
2013-01-12 05:53:00,34.6,30.0,30.20,ESE,109,0.0,-999.0,84,-99.99,,,0.00,weatherlink.com 1.10,2013-01-12 13:53:00,
2013-01-12 06:08:00,34.4,30.0,30.20,ESE,109,0.0,-999.0,85,-99.99,,,0.00,weatherlink.com 1.10,2013-01-12 14:08:00,
2013-01-12 06:23:00,34.0,30.0,30.20,ESE,109,0.0,-999.0,86,-99.99,,,0.00,weatherlink.com 1.10,2013-01-12 14:23:00,
2013-01-12 06:38:00,34.1,31.0,30.21,ESE,109,0.0,-999.0,87,-99.99,,,0.00,weatherlink.com 1.10,2013-01-12 14:38:00,
2013-01-12 06:53:00,34.1,31.0,30.22,ESE,109,0.0,-999.0,88,-99.99,,,0.00,weatherlink.com 1.10,2013-01-12 14:53:00,
2013-01-12 07:08:00,34.1,31.0,30.22,ESE,109,0.0,-999.0,88,-99.99,,,0.00,weatherlink.com 1.10,2013-01-12 15:08:00,
2013-01-12 07:23:00,34.0,31.0,30.22,ESE,109,0.0,-999.0,88,-99.99,,,0.00,weatherlink.com 1.10,2013-01-12 15:23:00,
2013-01-12 07:39:00,33.7,31.0,30.23,ESE,109,0.0,-999.0,89,-99.99,,,0.00,weatherlink.com 1.10,2013-01-12 15:39:00,
2013-01-12 07:54:00,33.7,31.0,30.23,ESE,109,0.0,-999.0,88,-99.99,,,0.00,weatherlink.com 1.10,2013-01-12 15:54:00,
2013-01-12 08:09:00,33.8,31.0,30.23,ESE,109,0.0,-999.0,88,-99.99,,,0.00,weatherlink.com 1.10,2013-01-12 16:09:00,
2013-01-12 08:24:00,34.9,31.0,30.23,ESE,109,0.0,-999.0,84,-99.99,,,0.00,weatherlink.com 1.10,2013-01-12 16:24:00,
2013-01-12 08:39:00,35.9,31.0,30.24,ESE,109,0.0,-999.0,82,-99.99,,,0.00,weatherlink.com 1.10,2013-01-12 16:39:00,
2013-01-12 08:54:00,38.2,29.0,30.24,East,93,0.0,-999.0,70,-99.99,,,0.00,weatherlink.com 1.10,2013-01-12 16:54:00,
2013-01-12 09:09:00,40.9,27.0,30.24,SE,126,0.0,-999.0,59,-99.99,,,0.00,weatherlink.com 1.10,2013-01-12 17:09:00,
2013-01-12 09:24:00,42.2,25.0,30.25,East,96,0.0,-999.0,51,-99.99,,,0.00,weatherlink.com 1.10,2013-01-12 17:24:00,
2013-01-12 09:39:00,43.6,25.0,30.25,SSW,197,0.0,-999.0,49,-99.99,,,0.00,weatherlink.com 1.10,2013-01-12 17:39:00,
2013-01-12 09:54:00,44.6,25.0,30.24,SW,225,0.0,-999.0,46,-99.99,,,0.00,weatherlink.com 1.10,2013-01-12 17:54:00,
2013-01-12 10:09:00,46.8,26.0,30.24,SW,222,2.0,-999.0,44,-99.99,,,0.00,weatherlink.com 1.10,2013-01-12 18:09:00,
2013-01-12 10:24:00,48.6,23.0,30.24,WSW,237,1.0,-999.0,37,-99.99,,,0.00,weatherlink.com 1.10,2013-01-12 18:24:00,
2013-01-12 10:39:00,48.8,25.0,30.24,WSW,239,0.0,-999.0,40,-99.99,,,0.00,weatherlink.com 1.10,2013-01-12 18:39:00,
2013-01-12 10:54:00,49.6,26.0,30.24,West,264,1.0,-999.0,40,-99.99,,,0.00,weatherlink.com 1.10,2013-01-12 18:54:00,
2013-01-12 11:09:00,50.1,25.0,30.23,WSW,255,1.0,-999.0,38,-99.99,,,0.00,weatherlink.com 1.10,2013-01-12 19:09:00,
2013-01-12 11:24:00,49.6,26.0,30.23,SW,219,0.0,-999.0,40,-99.99,,,0.00,weatherlink.com 1.10,2013-01-12 19:24:00,
2013-01-12 11:39:00,49.9,26.0,30.22,SW,227,1.0,-999.0,39,-99.99,,,0.00,weatherlink.com 1.10,2013-01-12 19:39:00,
2013-01-12 11:54:00,50.7,26.0,30.21,West,273,0.0,-999.0,38,-99.99,,,0.00,weatherlink.com 1.10,2013-01-12 19:54:00,
2013-01-12 12:09:00,50.7,26.0,30.20,SW,234,0.0,-999.0,38,-99.99,,,0.00,weatherlink.com 1.10,2013-01-12 20:09:00,
2013-01-12 12:24:00,51.3,26.0,30.20,WSW,239,2.0,-999.0,38,-99.99,,,0.00,weatherlink.com 1.10,2013-01-12 20:24:00,
2013-01-12 12:39:00,51.1,25.0,30.19,WSW,252,0.0,-999.0,37,-99.99,,,0.00,weatherlink.com 1.10,2013-01-12 20:39:00,
2013-01-12 12:54:00,51.7,28.0,30.18,WSW,241,1.0,-999.0,40,-99.99,,,0.00,weatherlink.com 1.10,2013-01-12 20:54:00,
2013-01-12 13:09:00,51.7,27.0,30.17,SSE,150,1.0,-999.0,38,-99.99,,,0.00,weatherlink.com 1.10,2013-01-12 21:09:00,
2013-01-12 13:24:00,51.0,25.0,30.17,SW,223,0.0,-999.0,37,-99.99,,,0.00,weatherlink.com 1.10,2013-01-12 21:24:00,
2013-01-12 13:39:00,51.9,27.0,30.17,West,260,0.0,-999.0,38,-99.99,,,0.00,weatherlink.com 1.10,2013-01-12 21:39:00,
2013-01-12 13:54:00,52.6,26.0,30.16,SW,224,0.0,-999.0,36,-99.99,,,0.00,weatherlink.com 1.10,2013-01-12 21:54:00,
2013-01-12 14:09:00,52.6,26.0,30.17,WSW,256,1.0,-999.0,36,-99.99,,,0.00,weatherlink.com 1.10,2013-01-12 22:09:00,
2013-01-12 14:24:00,52.3,26.0,30.16,WSW,247,0.0,-999.0,36,-99.99,,,0.00,weatherlink.com 1.10,2013-01-12 22:24:00,
2013-01-12 14:39:00,52.3,25.0,30.16,WSW,252,1.0,-999.0,34,-99.99,,,0.00,weatherlink.com 1.10,2013-01-12 22:39:00,
2013-01-12 14:54:00,52.6,25.0,30.16,SW,216,2.0,-999.0,35,-99.99,,,0.00,weatherlink.com 1.10,2013-01-12 22:54:00,
2013-01-12 15:09:00,52.2,24.0,30.16,SW,231,1.0,-999.0,33,-99.99,,,0.00,weatherlink.com 1.10,2013-01-12 23:09:00,
2013-01-12 15:24:00,51.6,22.0,30.15,WSW,254,0.0,-999.0,31,-99.99,,,0.00,weatherlink.com 1.10,2013-01-12 23:24:00,
2013-01-12 15:39:00,51.6,21.0,30.15,WSW,254,0.0,-999.0,30,-99.99,,,0.00,weatherlink.com 1.10,2013-01-12 23:39:00,
2013-01-12 15:54:00,50.8,22.0,30.14,WSW,254,1.0,-999.0,32,-99.99,,,0.00,weatherlink.com 1.10,2013-01-12 23:54:00,
2013-01-12 16:09:00,49.6,21.0,30.14,WSW,254,0.0,-999.0,33,-99.99,,,0.00,weatherlink.com 1.10,2013-01-13 00:09:00,
2013-01-12 16:24:00,49.5,23.0,30.14,WSW,247,0.0,-999.0,35,-99.99,,,0.00,weatherlink.com 1.10,2013-01-13 00:24:00,
2013-01-12 16:39:00,49.1,24.0,30.14,WSW,247,0.0,-999.0,38,-99.99,,,0.00,weatherlink.com 1.10,2013-01-13 00:39:00,
2013-01-12 16:54:00,48.2,25.0,30.14,WSW,247,0.0,-999.0,40,-99.99,,,0.00,weatherlink.com 1.10,2013-01-13 00:54:00,
2013-01-12 17:09:00,46.8,25.0,30.14,WSW,247,0.0,-999.0,42,-99.99,,,0.00,weatherlink.com 1.10,2013-01-13 01:09:00,
2013-01-12 17:24:00,45.8,26.0,30.14,WSW,247,0.0,-999.0,46,-99.99,,,0.00,weatherlink.com 1.10,2013-01-13 01:24:00,
2013-01-12 17:39:00,45.1,29.0,30.15,WSW,247,0.0,-999.0,53,-99.99,,,0.00,weatherlink.com 1.10,2013-01-13 01:39:00,
2013-01-12 17:54:00,44.8,30.0,30.16,WSW,247,0.0,-999.0,56,-99.99,,,0.00,weatherlink.com 1.10,2013-01-13 01:54:00,
2013-01-12 18:09:00,44.6,30.0,30.16,WSW,247,0.0,-999.0,56,-99.99,,,0.00,weatherlink.com 1.10,2013-01-13 02:09:00,
2013-01-12 18:24:00,44.3,29.0,30.16,WSW,247,0.0,-999.0,55,-99.99,,,0.00,weatherlink.com 1.10,2013-01-13 02:24:00,
2013-01-12 18:39:00,44.3,29.0,30.15,WSW,247,0.0,-999.0,56,-99.99,,,0.00,weatherlink.com 1.10,2013-01-13 02:39:00,
2013-01-12 18:54:00,44.2,28.0,30.14,WSW,247,0.0,-999.0,54,-99.99,,,0.00,weatherlink.com 1.10,2013-01-13 02:54:00,
2013-01-12 19:09:00,44.2,30.0,30.15,WSW,247,0.0,-999.0,57,-99.99,,,0.00,weatherlink.com 1.10,2013-01-13 03:09:00,
2013-01-12 19:24:00,44.1,30.0,30.14,WSW,247,0.0,-999.0,57,-99.99,,,0.00,weatherlink.com 1.10,2013-01-13 03:24:00,
2013-01-12 19:39:00,43.8,30.0,30.15,WSW,247,0.0,-999.0,58,-99.99,,,0.00,weatherlink.com 1.10,2013-01-13 03:39:00,
2013-01-12 19:54:00,43.6,30.0,30.16,WSW,247,0.0,-999.0,58,-99.99,,,0.00,weatherlink.com 1.10,2013-01-13 03:54:00,
2013-01-12 20:09:00,43.2,29.0,30.16,WSW,247,0.0,-999.0,58,-99.99,,,0.00,weatherlink.com 1.10,2013-01-13 04:09:00,
2013-01-12 20:24:00,42.3,28.0,30.16,WSW,247,0.0,-999.0,57,-99.99,,,0.00,weatherlink.com 1.10,2013-01-13 04:24:00,
2013-01-12 20:39:00,41.6,28.0,30.16,WSW,247,0.0,-999.0,59,-99.99,,,0.00,weatherlink.com 1.10,2013-01-13 04:39:00,
2013-01-12 20:54:00,41.2,28.0,30.16,WSW,247,0.0,-999.0,60,-99.99,,,0.00,weatherlink.com 1.10,2013-01-13 04:54:00,
2013-01-12 21:10:00,41.2,26.0,30.16,ENE,78,0.0,-999.0,56,-99.99,,,0.00,weatherlink.com 1.10,2013-01-13 05:10:00,
2013-01-12 21:25:00,41.2,26.0,30.16,East,82,0.0,-999.0,56,-99.99,,,0.00,weatherlink.com 1.10,2013-01-13 05:25:00,
2013-01-12 21:40:00,41.5,25.0,30.15,NE,55,0.0,-999.0,53,-99.99,,,0.00,weatherlink.com 1.10,2013-01-13 05:40:00,
2013-01-12 21:55:00,41.2,26.0,30.15,ENE,75,1.0,-999.0,54,-99.99,,,0.00,weatherlink.com 1.10,2013-01-13 05:55:00,
2013-01-12 22:10:00,41.2,26.0,30.16,East,96,0.0,-999.0,55,-99.99,,,0.00,weatherlink.com 1.10,2013-01-13 06:10:00,
2013-01-12 22:25:00,40.8,25.0,30.16,East,87,1.0,-999.0,54,-99.99,,,0.00,weatherlink.com 1.10,2013-01-13 06:25:00,
2013-01-12 22:40:00,41.1,24.0,30.17,East,101,2.0,-999.0,51,-99.99,,,0.00,weatherlink.com 1.10,2013-01-13 06:40:00,
2013-01-12 22:55:00,41.2,23.0,30.17,NE,55,0.0,-999.0,49,-99.99,,,0.00,weatherlink.com 1.10,2013-01-13 06:55:00,
2013-01-12 23:10:00,41.2,22.0,30.17,ENE,60,0.0,-999.0,47,-99.99,,,0.00,weatherlink.com 1.10,2013-01-13 07:10:00,
2013-01-12 23:25:00,40.9,22.0,30.18,East,86,0.0,-999.0,48,-99.99,,,0.00,weatherlink.com 1.10,2013-01-13 07:25:00,
2013-01-12 23:40:00,40.2,23.0,30.18,East,86,0.0,-999.0,50,-99.99,,,0.00,weatherlink.com 1.10,2013-01-13 07:40:00,
2013-01-12 23:55:00,39.5,23.0,30.19,East,86,0.0,-999.0,51,-99.99,,,0.00,weatherlink.com 1.10,2013-01-13 07:55:00,